COSMOS 2338

Satellite information

Favourite Embed

Satellite Type and Status

PAYLOADIN ORBIT

Key statistics

Satellite COSMOS 2338 at a glance.

Uptime

10532

Days in orbit

Revolutions

≈ 12.6

Per day

Orbit

LEO

Low Earth Orbit

Inclination

82.6

Latest

Satellite identification and parameters

Extended collection of information and parameters for COSMOS 2338.

Object identification

Identified? True

Debris? False

Object name: COSMOS 2338

International designator: 1997-006B

Object number (NORAD): 24726

Object ID (CCSDS): 24726

Country: COMMONWEALTH OF INDEPENDENT STATES (CIS)

Current information (Y/N): Y

RCS size: MEDIUM

Orbital parameters

Period: 114.16 minutes

Inclination: 82.6003 deg

SMA: 7795.352 km

Apoapsis: 1421.821 km

Periapsis: 1412.614 km

RAAN: 20.1248 deg

Eccentricy: 0.00059055

Argument of periapsis: 137.7319 deg

Mean anomaly: 222.4228 deg

Mean motion: 12.61389258 rev/day

Mean motion (dot): 0.00000012 rev/day2

B* drag term: 0.000008945968 1/REarth

Two-line elements (TLE)

Creation date: Dec. 16, 2025, 2:19 a.m.

Reference frame: TEME

Reference center: EARTH

Epoch: Dec. 15, 2025, 7:03 p.m. UTC

TLE line 0: 0 COSMOS 2338

TLE line 1: 1 24726U 97006B 25349.79397753 .00000012 00000-0 89460-5 0 9991

TLE line 2: 2 24726 82.6003 20.1248 0005906 137.7319 222.4228 12.61389258327357

Live tracking on map

Real-time ground track for satellite COSMOS 2338.

In-orbit conjunctions

A list of the most updated potential collisions computed for object COSMOS 2338.

Target Orbit TCA Probability of collision Miss distance Type
DELTA 1 DEB SSO 2025-06-07 10:09:01 0.0001547685 655.0 (m) DEBRIS
SL-14 R/B LEO 2024-07-26 20:32:09 0.003166925 155.0 (m) ROCKET BODY

Associated space launch

Gonets- satellite were the civilian derivate of the military Strela-3 satellite system. The Gonets system was offered to support international health organizations to meet their global communications needs for the transfer of medical data and records to remote sites. Strela-3 was second generation of strategic store-dump military communications satellite. Development of this generation to replace the first generation Strela-1M and Strela-2M satellites began in 1973.

COSMOS 2338 was lifted into orbit during the mission ‘Tsiklon-3 | Strela-3 116 to 118 & Gonets 4 to 6’, on board a Tsiklon-3 space rocket.

The launch took place on Feb. 14, 1997, 3:47 a.m. from 32/1.

For more information about the launch, click the button.

Launch to space Tsiklon-3 | Strela-3 116 to 118 & Gonets 4 to 6
Tsiklon-3 | Strela-3 116 to 118 & Gonets 4 to 6

Agency: N/A

Status: Launch Successful

Launch date: Feb. 14, 1997, 3:47 a.m. UTC

Rocket: Tsiklon-3

Launch pad: 32/1

Location: Plesetsk Cosmodrome, Russian Federation

...

Latest news about this satellite

There are no fresh news available about this satellite. Check back as we update our databases every day.


Newsletter sign-up

Weekly statistics, charts and insights to help you stay on top of the space industry.